Weather in Koknese

Latvia     56˚39′04″N   25˚25′43″E
temp.,
°C
wind,
m/s
gust,
m/s
humid.,
%
clouds,
%
prec.,
mm/h
press.,
hPa
HPBL,
m
2 december, wed
wed223:00−3˚sse2494100 0.0 1031105
02:00−4˚sse2695100 0.0 1032158
05:00−5˚se2496100 0.0 103293
08:00−5˚se259596 0.0 1032176
11:00−3˚se369169 0.0 1032285
14:00−2˚se358974 0.0 1030461
17:00−3˚se3687100 0.0 1029563
20:00−2˚se3784100 0.1 1027612
3 december, thu
thu323:00−4˚ese379594 0.0 1026286
02:00−4˚ese379694 0.1 1025280
05:00−3˚se379687 0.1 1023408
08:00−3˚se489088 0.1 1022540
11:00−2˚se498897 0.1 1021667
14:00−2˚sse488997 0.2 1021744
17:00−2˚sse498697 0.1 1019775
20:00−1˚se4108399 0.1 1019807
4 december, fri
fri423:00−1˚sse5118796 0.0 1018777
02:00sse5118798 0.0 1018836
05:00sse51286100 0.0 1016854
08:00+1˚se61384100 0.0 1017859
11:00+2˚se61284100 0.0 1016899
14:00+2˚se61289100 0.0 1016909
17:00+3˚se61386100 0.0 1015935
20:00+3˚sse61488100 0.0 10141034
5 december, sat
sat523:00+4˚se51488100 0.0 10151005
02:00+4˚se61487100 0.0 1015817
05:00+3˚se61489100 0.0 1016767
08:00+3˚sse61390100 0.0 1017818
11:00+4˚sse61389100 0.0 1018882
14:00+4˚se51388100 0.0 1019816
17:00+4˚se51390100 0.0 1019706
20:00+4˚se51289100 0.0 1020641
6 december, sun
sun623:00+4˚se51289100 0.0 1021635
02:00+4˚se51388100 0.0 1021637
05:00+4˚se51388100 0.0 1021709
08:00+4˚se61385100 0.0 1022775
11:00+3˚se61382100 0.0 1023789
14:00+3˚se61282100 0.0 1023879
17:00+1˚se61284100 0.0 1023696
20:00+1˚se61481100 0.0 1023673